SCP
0 0 0 0 0 0 0 0 0 0 0 0 0 0 0 0 0 0 0 0 0 0 0 0 0 0 0 0 0 0 0 0 0 0 0 0 0 0 0 0 0 0 0 0
0 0 0 0 0 0 0 0 0 0 0 0 0 0 0 0 0 0 0 0 0 0 0 0 0 0 0 0 0 0 0 0 0 0 0 0 0 0 0 0 0 0 0 0
0 0 0 0 0 0 0 0 0 0 0 0 0 0 0 0 0 0 0 0 0 0 0 0 0 0 0 0 0 0 0 0 0 0 0 0 0 0 0 0 0 0 0 0
0 0 0 0 0 0 0 0 0 0 0 0 0 0 0 0 0 0 0 0 0 0 0 0 0 0 0 0 0 0 0 0 0 0 0 0 0 0 0 0 0 0 0 0
0 0 0 0 0 0 0 0 0 0 0 0 0 0 0 0 0 0 0 0 0 0 0 0 0 0 0 0 0 0 0 0 0 0 0 0 0 0 0 0 0 0 0 0
0 0 0 0 0 0 0 0 0 0 0 0 0 0 0 0 0 0 0 0 0 0 0 0 0 0 0 0 0 0 0 0 0 0 0 0 0 0 0 0 0 0 0 0
0 0 0 0 0 0 0 0 0 0 0 0 0 0 0 0 0 0 0 0 0 0 0 0 0 0 0 0 0 0 0 0 0 0 0 0 0 0 0 0 0 0 0 0
0 0 0 0 0 0 0 0 0 0 0 0 0 0 0 0 0 0 0 0 0 0 0 0 0 0 0 0 0 0 0 0 0 0 0 0 0 0 0 0 0 0 0 0
0 0 0 0 0 0 0 0 0 0 0 0 0 0 0 0 0 0 0 0 0 0 0 0 0 0 0 0 0 0 0 0 0 0 0 0 0 0 0 0 0 0 0 0
0 0 0 0 0 0 0 0 0 0 0 0 0 0 0 0 0 0 0 0 0 0 0 0 0 0 0 0 0 0 0 0 0 0 0 0 0 0 0 0 0 0 0 0
0 0 0 0 0 0 0 0 0 0 0 0 0 0 0 0 0 0 0 0 0 0 0 0 0 0 0 0 0 0 0 0 0 0 0 0 0 0 0 0 0 0 0 0
0 0 0 0 0 0 0 0 0 0 0 0 0 0 0 0 0 0 0 0 0 0 0 0 0 0 0 0 0 0 0 0 0 0 0 0 0 0 0 0 0 0 0 0
0 0 0 0 0 0 0 0 0 0 0 0 0 0 0 0 0 0 0 0 0 0 0 0 0 0 0 0 0 0 0 0 0 0 0 0 0 0 0 0 0 0 0 0
0 0 0 0 0 0 0 0 0 0 0 0 0 0 0 0 0 0 0 0 0 0 0 0 0 0 0 0 0 0 0 0 0 0 0 0 0 0 0 0 0 0 0 0
0 0 0 0 0 0 0 0 0 0 0 0 0 0 0 0 0 0 0 0 0 0 0 0 0 0 0 0 0 0 0 0 0 0 0 0 0 0 0 0 0 0 0 0
0 0 0 0 0 0 0 0 0 0 0 0 0 0 0 0 0 0 0 0 0 0 0 0 0 0 0 0 0 0 0 0 0 0 0 0 0 0 0 0 0 0 0 0
0 0 0 0 0 0 0 0 0 0 0 0 0 0 0 0 0 0 0 0 0 0 0 0 0 0 0 0 0 0 0 0 0 0 0 0 0 0 0 0 0 0 0 0
0 0 0 0 0 0 0 0 0 0 0 0 0 0 0 0 0 0 0 0 0 0 0 0 0 0 0 0 0 0 0 0 0 0 0 0 0 0 0 0 0 0 0 0
0 0 0 0 0 0 0 0 0 0 0 0 0 0 0 0 0 0 0 0 0 0 0 0 0 0 0 0 0 0 0 0 0 0 0 0 0 0 0 0 0 0 0 0
0 0 0 0 0 0 0 0 0 0 0 0 0 0 0 0 0 0 0 0 0 0 0 0 0 0 0 0 0 0 0 0 0 0 0 0 0 0 0 0 0 0 0 0
0 0 0 0 0 0 0 0 0 0 0 0 0 0 0 0 0 0 0 0 0 0 0 0 0 0 0 0 0 0 0 0 0 0 0 0 0 0 0 0 0 0 0 0
0 0 0 0 0 0 0 0 0 0 0 0 0 0 0 0 0 0 0 0 0 0 0 0 0 0 0 0 0 0 0 0 0 0 0 0 0 0 0 0 0 0 0 0
0 0 0 0 0 0 0 0 0 0 0 0 0 0 0 0 0 0 0 0 0 0 0 0 0 0 0 0 0 0 0 0 0 0 0 0 0 0 0 0 0 0 0 0
0 0 0 0 0 0 0 0 0 0 0 0 0 0 0 0 0 0 0 0 0 0 0 0 0 0 0 0 0 0 0 0 0 0 0 0 0 0 0 0 0 0 0 0
0 0 0 0 0 0 0 0 0 0 0 0 0 0 0 0 0 0 0 0 0 0 0 0 0 0 0 0 0 0 0 0 0 0 0 0 0 0 0 0 0 0 0 0
0 0 0 0 0 0 0 0 0 0 0 0 0 0 0 0 0 0 0 0 0 0 0 0 0 0 0 0 0 0 0 0 0 0 0 0 0 0 0 0 0 0 0 0
0 0 0 0 0 0 0 0 0 0 0 0 0 0 0 0 0 0 0 0 0 0 0 0 0 0 0 0 0 0 0 0 0 0 0 0 0 0 0 0 0 0 0 0
Wind_Speed
6 5 6 7 7 8 10 9 8 6 6 5 3 3 2 2 1 1 2 2 2 3 3 3 3 3 3 3 4 5 5 5 5 5 4 4 4 4 4 4 3 3 3 3
6 5 7 9 9 9 10 10 10 10 9 4 2 2 3 2 2 2 2 2 2 2 2 3 3 3 4 4 4 4 5 5 5 4 4 4 4 4 4 4 4 3 3 3
5 4 7 9 8 9 8 8 9 9 5 2 3 3 3 2 3 3 3 2 2 2 2 2 2 2 3 4 4 5 5 5 5 5 5 5 5 5 5 5 4 4 4 4
5 5 8 1 1 4 6 7 7 7 5 4 3 2 2 2 3 2 2 2 2 2 2 1 1 2 3 4 5 5 5 5 5 5 5 5 5 5 5 5 5 4 4 4
5 6 7 4 2 3 6 6 5 6 5 3 2 3 3 1 1 2 2 2 2 1 1 1 1 2 3 4 4 4 4 5 5 5 5 5 5 5 5 4 5 5 4 4
6 7 6 1 2 1 5 5 1 3 3 3 4 5 1 1 1 1 0 1 1 1 1 1 1 2 3 4 4 4 4 5 5 5 5 6 6 5 5 5 5 4 4 4
10 9 6 1 1 3 6 2 2 2 3 4 4 3 1 1 1 1 1 1 1 1 1 1 1 2 3 3 4 4 4 4 4 5 5 5 5 5 5 5 5 5 4 4
7 9 6 3 3 4 4 3 1 2 3 3 2 1 1 2 1 1 1 1 2 2 2 1 2 3 3 3 3 3 3 4 4 4 4 4 4 5 5 5 5 5 4 4
5 4 4 1 3 3 4 4 3 3 3 3 4 3 3 3 2 2 3 2 2 3 2 2 2 3 3 3 3 3 3 4 4 4 4 4 4 4 4 5 4 4 4 3
7 6 4 5 5 5 5 6 5 5 4 5 5 4 4 4 3 3 3 3 3 3 3 3 3 3 3 3 3 4 4 4 4 4 4 4 3 3 3 4 4 4 3 3
9 7 6 6 6 6 5 5 5 5 5 6 5 5 5 5 4 4 4 3 4 4 4 3 3 3 3 3 3 4 4 4 4 4 4 4 3 2 3 3 3 3 3 3
8 7 7 6 5 6 7 6 6 6 6 5 5 6 6 5 4 4 4 4 4 4 4 4 3 3 3 3 3 4 4 4 3 3 3 3 3 2 1 1 2 2 1 2
8 7 8 9 8 8 8 8 7 7 6 6 6 6 6 5 4 4 4 5 5 4 4 3 3 3 2 2 3 4 4 3 3 3 3 4 3 3 2 1 1 2 3 3
8 8 9 8 8 8 7 7 7 6 6 5 5 5 5 5 5 5 5 5 4 4 4 3 3 2 2 2 3 3 3 3 3 3 3 3 4 4 3 3 2 2 2 4
8 9 9 8 7 7 6 6 6 6 5 5 4 5 5 5 5 5 4 4 4 4 4 4 3 3 3 3 3 3 2 2 2 2 2 3 3 3 3 4 3 2 2 2
7 7 8 8 8 7 7 6 6 6 5 5 5 5 5 5 4 4 4 4 5 5 4 4 4 4 3 3 3 3 2 2 2 2 2 3 3 3 3 3 3 2 2 2
8 8 8 8 7 7 7 6 6 6 5 5 5 5 4 4 4 4 4 4 4 4 4 4 4 4 3 3 4 3 2 2 4 3 3 3 3 3 3 3 3 2 2 2
9 9 8 8 7 7 7 6 6 6 5 5 5 5 5 5 5 5 4 4 4 4 4 4 3 3 4 4 4 3 3 3 3 3 3 3 3 3 3 3 3 3 2 2
7 7 7 7 7 7 6 6 6 5 5 5 5 5 5 5 5 5 4 5 5 5 4 3 3 4 4 4 3 3 3 3 4 3 3 3 4 3 3 3 3 3 3 2
5 5 5 6 6 6 6 6 5 5 5 5 5 5 5 5 5 5 5 5 4 3 3 3 4 4 4 4 3 3 3 4 4 3 3 3 3 3 3 3 3 3 3 3
5 5 5 5 5 5 5 5 4 5 4 5 6 6 6 5 5 5 5 4 4 3 3 4 4 3 3 3 4 4 4 4 4 4 4 3 3 4 4 3 3 3 3 3
5 4 4 4 4 4 4 3 3 4 4 4 5 5 5 5 5 5 6 4 3 3 3 3 3 3 3 3 4 4 4 4 4 4 4 4 4 4 4 4 4 4 3 3
4 4 4 3 3 3 3 3 3 3 4 4 5 5 5 4 4 4 4 3 3 4 4 3 3 4 4 4 4 4 5 5 5 4 4 4 4 4 4 4 4 3 3 3
4 3 3 3 2 2 2 2 2 2 3 3 3 4 4 3 3 3 3 3 4 4 3 3 4 5 5 4 4 4 4 4 4 4 4 4 4 4 4 3 3 3 3 4
4 3 3 2 2 2 2 2 2 2 2 2 2 2 2 2 3 3 3 4 4 4 4 4 5 5 5 4 4 4 4 4 4 4 4 4 4 4 4 4 3 3 3 4
3 3 3 3 2 2 2 2 2 2 2 1 1 1 1 1 2 2 3 3 4 4 4 3 4 5 4 4 4 4 4 4 4 4 4 3 4 4 4 4 4 4 4 4
3 3 2 2 2 2 2 2 2 2 2 2 2 2 2 2 2 2 3 3 3 3 3 3 3 3 3 3 3 3 3 3 3 3 3 3 3 3 3 4 3 3 3 3
Wind_Direction
272 278 264 263 258 244 247 259 268 273 271 275 271 258 244 225 202 182 159 165 169 176 176 178 176 179 172 173 172 173 176 182 187 190 189 194 192 201 199 197 200 194 194 194
252 249 253 260 258 250 250 254 256 264 269 280 271 235 227 216 196 193 187 187 179 182 182 188 191 193 186 185 182 181 186 190 185 188 187 196 196 198 200 202 203 195 197 196
258 254 258 251 246 239 239 240 247 256 267 255 235 235 235 223 204 207 201 202 196 190 196 214 210 213 208 196 186 185 188 185 184 188 190 195 193 194 201 202 199 200 204 204
267 247 247 291 72 248 243 248 250 257 268 261 258 254 251 230 212 221 218 212 211 211 197 217 224 218 217 199 194 191 187 185 188 190 193 194 196 199 204 201 196 203 207 207
252 256 265 241 202 225 242 251 247 250 254 256 244 216 210 207 229 245 229 216 212 228 215 206 219 214 202 194 194 193 195 197 195 193 192 195 197 202 204 203 201 203 201 203
239 252 254 298 95 267 254 243 201 240 248 229 218 239 217 150 208 237 240 214 212 226 240 217 223 218 206 202 205 206 207 209 200 197 199 202 204 204 201 202 204 203 200 205
239 250 260 17 101 203 236 333 58 257 250 227 241 309 35 159 198 218 213 215 219 222 238 250 235 213 212 209 218 217 214 213 210 204 206 206 204 198 198 199 200 202 200 202
230 239 245 110 171 226 312 3 312 269 253 243 257 301 209 208 218 240 237 225 223 231 245 251 230 220 225 226 227 217 213 212 212 206 198 193 192 195 197 192 196 197 201 199
243 270 7 196 247 316 324 296 294 278 265 246 244 242 240 234 232 242 243 232 229 233 235 242 230 226 238 241 230 213 206 207 205 198 188 184 184 186 189 191 199 200 202 208
249 254 268 265 268 280 284 285 289 282 268 252 247 241 240 240 238 240 239 236 232 231 231 238 239 232 242 247 232 215 208 204 198 195 185 180 182 186 190 195 199 202 205 213
254 268 273 260 265 278 283 281 279 275 267 259 251 245 243 243 241 243 238 234 232 237 241 246 246 237 239 235 224 219 211 202 200 194 183 180 179 186 198 198 200 206 210 211
257 265 268 278 290 286 277 271 269 271 270 260 247 248 248 246 241 239 238 236 236 237 242 246 245 235 237 235 230 225 213 202 197 188 181 183 179 170 117 213 155 193 235 231
268 277 278 285 285 280 273 271 270 266 260 255 252 247 245 245 240 237 235 234 236 237 238 241 237 233 234 234 233 229 220 205 191 192 188 190 191 190 185 143 123 195 202 213
260 265 269 269 276 276 272 272 269 263 256 252 250 246 242 241 240 238 235 234 237 235 236 239 240 242 247 243 238 235 226 210 204 199 198 195 199 202 201 200 205 214 201 195
257 258 265 276 277 273 269 264 257 253 251 249 245 240 235 234 236 238 236 230 227 228 230 231 234 241 244 240 235 231 225 217 211 208 206 203 202 206 210 213 217 215 197 174
264 260 259 261 263 264 261 256 253 252 250 248 246 243 241 239 239 237 230 224 223 227 230 227 231 238 239 234 230 228 215 188 204 209 210 208 205 208 211 217 218 219 219 207
259 257 256 256 256 258 259 258 255 251 246 245 247 248 241 234 233 232 231 229 234 237 232 228 231 232 229 227 230 229 223 196 195 211 214 213 212 215 213 215 219 221 226 210
259 261 259 259 258 257 260 260 256 252 248 245 242 238 233 229 231 234 233 230 223 226 229 230 222 220 228 231 232 228 221 214 209 214 217 218 219 221 219 216 219 223 229 204
268 265 264 263 264 260 261 261 257 252 245 235 229 229 231 234 231 227 220 218 220 224 226 220 211 217 225 228 238 227 223 221 216 215 216 212 215 217 217 219 222 223 223 223
279 274 272 272 268 261 257 257 256 250 241 231 226 225 227 229 226 219 216 224 228 230 226 224 220 219 221 213 214 224 221 222 222 219 215 217 219 220 221 224 229 230 226 224
288 284 279 274 271 266 258 254 251 247 240 227 224 225 226 222 216 215 215 224 227 223 219 218 223 223 224 212 205 219 219 221 222 220 216 215 220 222 222 223 227 234 234 230
293 287 281 276 270 267 263 257 253 246 237 228 225 224 219 215 213 220 226 230 221 204 214 219 219 219 228 220 217 220 222 222 222 218 214 215 218 222 225 227 228 232 233 234
296 289 286 282 277 278 280 272 263 253 239 230 224 219 220 221 219 221 231 227 218 206 221 224 219 216 223 220 218 218 222 222 221 219 217 216 218 221 224 227 230 231 232 233
303 298 293 288 281 273 284 297 296 280 258 237 229 227 227 225 228 235 243 213 215 218 233 215 206 212 220 220 218 221 224 223 220 220 220 219 220 223 224 226 229 230 233 236
300 294 286 278 271 274 286 292 292 284 270 238 236 236 238 240 241 236 235 226 214 217 229 215 208 212 219 218 220 225 227 223 218 218 218 218 218 221 223 224 227 231 234 235
301 295 287 277 274 273 272 269 265 267 263 249 249 251 253 253 243 238 231 225 224 228 234 230 220 216 223 221 223 227 227 220 213 218 222 219 218 220 223 223 230 236 238 234
298 296 284 281 273 264 265 263 259 259 255 246 250 256 247 244 243 236 236 232 227 227 227 228 227 228 226 223 225 227 227 222 214 214 220 224 223 223 221 225 231 236 238 232